Weather History for Steamboat Springs, CO

Change the Weather History Date:

Sunday, June 16, 2013

  Actual Average Record
Temperature  
Mean Temperature 59 °F -  
Max Temperature 75 °F 74 °F 87 °F (1953)
Min Temperature 43 °F 35 °F 20 °F (1945)
Degree Days  
Heating Degree Days 6    
Growing Degree Days 9 (Base 50)    
Moisture  
Dew Point 32 °F    
Average Humidity 38    
Maximum Humidity 63    
Minimum Humidity 12    
Precipitation  
Precipitation 0.00 in - - ()
Sea Level Pressure  
Sea Level Pressure 30.24 in    
Wind  
Wind Speed 3 mph (SE)    
Max Wind Speed 25 mph    
Max Gust Speed 31 mph    
Visibility 10 miles    
Events      
Averages and records for this station are not official NWS values.
T = Trace of Precipitation, MM = Missing Value Source: NWS Daily Summary

Daily Weather History Graph

Daily Weather History Graph

Search for Another Location

Airport:

Trip Planner

Search our weather history database for the weather conditions in past years. The results will help you decide how hot, cold, wet, or windy it might be!

Date:

Astronomy

Jun. 16, 2013 Rise Set
Actual Time 5:36 AM MDT 8:40 PM MDT
Civil Twilight 5:03 AM MDT 9:13 PM MDT
Nautical Twilight 4:20 AM MDT 9:55 PM MDT
Astronomical Twilight 3:31 AM MDT 10:45 PM MDT
Moon 1:17 PM MDT (6/16) 12:44 AM MDT (6/16)
Length of Visible Light 16h 10m
Length of Day
15h 03m
Waxing Crescent, 50% of the Moon is Illuminated
Jun 16
Waxing Crescent
Jun 23
Full
Jun 29
Last Quarter
Jul 8
New
Jul 15
First Quarter

Hourly Weather History & Observations

Time (MDT) Temp. Dew Point Humidity Pressure Visibility Wind Dir Wind Speed Gust Speed Precip Events Conditions
12:15 AM 59.0 °F 23.9 °F 26% 30.18 in 10.0 mi Calm Calm - N/A   Clear
12:35 AM 54.5 °F 26.6 °F 34% 30.18 in 10.0 mi Calm Calm - N/A   Clear
12:55 AM 55.4 °F 27.3 °F 34% 30.18 in 10.0 mi Calm Calm - N/A   Scattered Clouds
1:15 AM 55.6 °F 24.4 °F 30% 30.19 in 10.0 mi Calm Calm - N/A   Clear
1:35 AM 48.9 °F 31.3 °F 51% 30.20 in 10.0 mi Calm Calm - N/A   Clear
1:55 AM 52.2 °F 26.1 °F 36% 30.20 in 10.0 mi Calm Calm - N/A   Clear
2:15 AM 52.0 °F 25.7 °F 36% 30.20 in 10.0 mi Calm Calm - N/A   Clear
2:35 AM 48.4 °F 28.2 °F 46% 30.21 in 10.0 mi Calm Calm - N/A   Clear
2:55 AM 49.5 °F 27.9 °F 43% 30.21 in 10.0 mi Calm Calm - N/A   Clear
3:15 AM 49.1 °F 27.7 °F 44% 30.21 in 10.0 mi Calm Calm - N/A   Clear
3:35 AM 46.6 °F 28.9 °F 50% 30.22 in 10.0 mi Calm Calm - N/A   Clear
3:55 AM 46.9 °F 29.5 °F 51% 30.22 in 10.0 mi Calm Calm - N/A   Clear
4:15 AM 46.6 °F 29.3 °F 51% 30.22 in 10.0 mi Calm Calm - N/A   Clear
4:35 AM 46.8 °F 28.8 °F 50% 30.22 in 10.0 mi Calm Calm - N/A   Clear
4:55 AM 44.2 °F 30.0 °F 57% 30.23 in 10.0 mi Calm Calm - N/A   Clear
5:15 AM 45.0 °F 30.0 °F 56% 30.23 in 10.0 mi Calm Calm - N/A   Clear
5:35 AM 44.6 °F 29.8 °F 56% 30.23 in 10.0 mi Calm Calm - N/A   Clear
5:55 AM 44.2 °F 30.2 °F 58% 30.23 in 10.0 mi Calm Calm - N/A   Clear
6:15 AM 43.0 °F 31.3 °F 63% 30.23 in 10.0 mi Calm Calm - N/A   Clear
6:35 AM 43.2 °F 31.1 °F 62% 30.24 in 10.0 mi Calm Calm - N/A   Clear
6:55 AM 45.3 °F 32.0 °F 60% 30.24 in 10.0 mi Calm Calm - N/A   Clear
7:15 AM 48.6 °F 30.9 °F 51% 30.23 in 10.0 mi Calm Calm - N/A   Clear
7:35 AM 49.6 °F 33.4 °F 54% 30.24 in 10.0 mi Calm Calm - N/A   Clear
7:55 AM 52.0 °F 33.6 °F 50% 30.24 in 10.0 mi Calm Calm - N/A   Clear
8:15 AM 53.6 °F 34.9 °F 49% 30.25 in 10.0 mi Calm Calm - N/A   Clear
8:35 AM 56.1 °F 33.6 °F 43% 30.26 in 10.0 mi Calm Calm - N/A   Clear
8:55 AM 57.2 °F 32.5 °F 39% 30.26 in 10.0 mi Calm Calm - N/A   Clear
9:15 AM 60.3 °F 33.1 °F 36% 30.26 in 10.0 mi Calm Calm - N/A   Clear
9:35 AM 62.8 °F 34.0 °F 34% 30.28 in 10.0 mi Calm Calm - N/A   Clear
9:55 AM 64.8 °F 35.6 °F 34% 30.28 in 10.0 mi Calm Calm - N/A   Clear
10:15 AM 66.0 °F 34.7 °F 31% 30.28 in 10.0 mi Calm Calm - N/A   Clear
10:35 AM 65.3 °F 33.6 °F 31% 30.28 in 10.0 mi SE 4.6 mph - N/A   Scattered Clouds
10:55 AM 64.8 °F 35.6 °F 34% 30.28 in 10.0 mi Calm Calm - N/A   Mostly Cloudy
11:15 AM 68.0 °F 34.3 °F 29% 30.28 in 10.0 mi Calm Calm - N/A   Mostly Cloudy
11:35 AM 71.8 °F 29.1 °F 21% 30.28 in 10.0 mi East 4.6 mph - N/A   Scattered Clouds
11:55 AM 71.2 °F 28.6 °F 20% 30.28 in 10.0 mi South 4.6 mph - N/A   Clear
12:15 PM 71.1 °F 30.7 °F 22% 30.28 in 10.0 mi South 11.5 mph - N/A   Clear
12:35 PM 69.6 °F 32.7 °F 26% 30.29 in 10.0 mi South 10.4 mph 16.1 mph N/A   Clear
12:55 PM 68.7 °F 30.2 °F 24% 30.28 in 10.0 mi SE 13.8 mph 20.7 mph N/A   Clear
1:15 PM 66.2 °F 31.5 °F 27% 30.28 in 10.0 mi ESE 12.7 mph 23.0 mph N/A   Clear
1:35 PM 67.6 °F 30.0 °F 25% 30.27 in 10.0 mi East 6.9 mph 16.1 mph N/A   Clear
1:55 PM 70.3 °F 28.9 °F 21% 30.26 in 10.0 mi East 9.2 mph - N/A   Clear
2:15 PM 72.9 °F 26.1 °F 18% 30.25 in 10.0 mi ESE 12.7 mph - N/A   Clear
2:35 PM 73.0 °F 30.0 °F 20% 30.24 in 10.0 mi East 13.8 mph - N/A   Clear
2:55 PM 73.6 °F 27.7 °F 18% 30.22 in 10.0 mi SE 4.6 mph 12.7 mph N/A   Clear
3:15 PM 75.2 °F 24.6 °F 15% 30.22 in 10.0 mi East 6.9 mph - N/A   Clear
3:35 PM 75.9 °F 21.9 °F 13% 30.22 in 10.0 mi East 5.8 mph - N/A   Clear
3:55 PM 74.3 °F 18.0 °F 12% 30.21 in 10.0 mi Calm Calm - N/A   Clear
4:15 PM 73.4 °F 24.8 °F 16% 30.22 in 10.0 mi SW 5.8 mph - N/A   Clear
4:35 PM 70.2 °F 30.0 °F 23% 30.26 in 10.0 mi West 15.0 mph 23.0 mph N/A   Clear
4:55 PM 64.9 °F 32.0 °F 29% 30.28 in 10.0 mi WNW 20.7 mph 26.5 mph N/A   Mostly Cloudy
5:15 PM 58.5 °F 41.5 °F 53% 30.28 in 10.0 mi NNW 25.3 mph 31.1 mph N/A   Overcast
5:35 PM 61.0 °F 35.1 °F 38% 30.26 in 10.0 mi North 12.7 mph 20.7 mph N/A   Scattered Clouds
5:55 PM 67.6 °F 32.0 °F 27% 30.25 in 10.0 mi NNW 8.1 mph - N/A   Clear
6:15 PM 68.7 °F 32.0 °F 26% 30.24 in 10.0 mi SW 4.6 mph - N/A   Clear
6:35 PM 67.6 °F 31.5 °F 26% 30.23 in 10.0 mi Calm Calm - N/A   Clear
6:55 PM 67.6 °F 32.0 °F 27% 30.22 in 10.0 mi Calm Calm - N/A   Clear
7:15 PM 67.6 °F 32.4 °F 27% 30.22 in 10.0 mi SW 3.5 mph - N/A   Clear
7:35 PM 65.8 °F 36.3 °F 34% 30.22 in 10.0 mi West 3.5 mph - N/A   Clear
7:55 PM 63.0 °F 37.8 °F 39% 30.22 in 10.0 mi WNW 4.6 mph - N/A   Clear
8:15 PM 59.5 °F 37.8 °F 44% 30.24 in 10.0 mi WNW 9.2 mph - N/A   Scattered Clouds
8:35 PM 58.6 °F 39.2 °F 48% 30.24 in 10.0 mi Calm Calm - N/A   Scattered Clouds
8:55 PM 57.6 °F 39.0 °F 50% 30.24 in 10.0 mi SE 9.2 mph - N/A   Scattered Clouds
9:15 PM 58.5 °F 38.7 °F 48% 30.27 in 10.0 mi WNW 9.2 mph - N/A   Scattered Clouds
9:35 PM 58.6 °F 35.2 °F 42% 30.27 in 10.0 mi NNE 4.6 mph - N/A   Scattered Clouds
9:55 PM 57.6 °F 36.3 °F 45% 30.24 in 10.0 mi East 11.5 mph - N/A   Scattered Clouds
10:15 PM 58.3 °F 36.0 °F 43% 30.28 in 10.0 mi WSW 4.6 mph - N/A   Mostly Cloudy
10:35 PM 56.8 °F 40.1 °F 54% 30.24 in 10.0 mi ESE 10.4 mph - N/A   Mostly Cloudy
10:55 PM 57.7 °F 38.3 °F 48% 30.27 in 10.0 mi Calm Calm - N/A   Mostly Cloudy
11:15 PM 55.6 °F 40.3 °F 56% 30.23 in 10.0 mi SE 15.0 mph - N/A   Mostly Cloudy
11:35 PM 56.8 °F 38.1 °F 50% 30.23 in 10.0 mi NE 3.5 mph - N/A   Scattered Clouds
11:55 PM 53.8 °F 40.3 °F 60% 30.23 in 10.0 mi Calm Calm - N/A   Clear